Terminal Aerodrome Forecast
Issued by NWS

Home | Current Version | Previous Version | Graphics & Text | Print | Product List | Glossary On
Versions: 1 2 3 4 5 6 7 8 9 10 11 12 13 14 15 16 17 18 19 20 21 22
000
FTUS43 KMPX 300200 AAA
TAFRNH
TAF AMD
KRNH 300250Z 3003/3024 VRB03KT 6SM -SHRA BKN010 OVC020
     FM300600 00000KT P6SM SCT015 BKN090
     FM300800 00000KT 3/4SM BR VV003
     FM301400 34003KT 4SM BR OVC007
     FM301600 34004KT P6SM BKN010 OVC020
     FM301800 34005KT P6SM BKN025
     FM302100 35004KT P6SM SCT025=

USA.gov is the U.S. government's official web portal to all federal, state and local government web resources and services.